Погода в Сосьве

Погода в Сосьве : погода сейчас, прогноз погоды и архив. Всё, что Вы хотите узнать о погоде в Сосьве!

Хотите узнать прогноз погоды в Сосьве? Тогда Вам сюда: Погода в Сосьве

Поиск расширенной информации на нашем сайте:

Другие новости

Новости СМИ2

Главная страница сайта

Новости сайта

02.10.2013

Напоминаем, что на нашем новом сайте вы можете получить высокодетализированные прогнозы погоды по пунктам России, СНГ и мира (включающие важные для авиации метеовеличины, такие как направление и скорость ветра, видимость, явления погоды, количество и форма облачности, нижняя и верхняя граница облачности), а также ознакомиться с разнообразными материалами по авиационной метеорологии и подборкой полезных ссылок на эту тему.

Сайт Метеоцентр.Азия посвящён разработке технологий оптимизации авиаметеорологического обслуживания, включая проектирование и перспективное создание нескольких автоматизированных авиаметеорологических систем:
- система выпуска высокодетальных прогностических карт явлений погоды для нижнего воздушного пространства по России и ближнему зарубежью;
- система верификации прогнозов TAF (выпускаемых синоптиками официальных АМСГ РФ и ближнего зарубежья) и AUTOTAF (выпускаемых сайтом Метеоцентр.Азия) - выявление ошибок, онлайн-сопоставление с фактической погодой METAR, автоматическое внесение коррективов в прогнозы при резком отклонении фактической погоды от прогноза, подсчёт оправдываемости прогнозов по элементам и в целом;
- система обработки, анализа и отображения авиаметеорологической информации для применения провайдерами метеорологической информации.


Погода в Сосьве - сегодня

Время (UTC), дата Ветер
(°,м/с) 
Видим.   Явления Облачность Т
(°С)
Тd
(°С)
f(%) Тe
(°С)
Pmin
(гПа)
dP
(гПа)
Po
(мм)
O2
(г/м3)
Тmin Tmax R s Состояние
почвы
06 21.01.17 060 (СВ) 20000 м  {снег}  10/0 средняя 
[As op]
-13.9 -15.5 88 -14  981.1  -0.5  733  313  -14.8         
09 21.01.17 тихо ()   20000 м  слаб. снег  10/0 средняя 
[As op]
-13.4 -15.3 86 -13  981  0.1  733  312           
12 21.01.17 320 (СЗ) 4000 м  слаб. снег  10/0 средняя 
[As op]
-16 -17.8 86 -16  981.4  0.3  733  315           
15 21.01.17 280 (З) 4000 м  слаб. снег  10/0 средняя 
[As op]
-16.8 -18.7 85 -17  981.4  0.1  733  316    -12.3     
18 21.01.17 300 (СЗ) 20000 м  в посл. час снег  6/0 средняя 
[As trans]
-18.2 -20.2 84 -18  981.8  0.3  734  318           
21 21.01.17 тихо ()   4000 м  слаб. снег  10/0 средняя 
[As op]
-18.4 -20.4 84 -18  981.9  0.1  734  319           
00 22.01.17 110 (В) 4000 м  слаб. снег  10/0 средняя 
[As op]
-17.2 -19.1 85 -17  981.7  0.1  734  317           
03 22.01.17 140 (ЮВ) 4000 м  слаб. снег  10/0 средняя 
[As op]
-17.7 -19.7 84 -18  981.8  734  318  -18.5    37  равномерный
сухой снег
100% 
06 22.01.17 тихо ()   20000 м  {снег}  10/0 верхняя 
[Cs]
-19.2 -21.3 83 -19  982.1  0.3  734  320  -20.5         
09 22.01.17 040 (СВ) 20000 м    8/0 средняя, верхняя 
[Ac trans|Ci fib]
-17.1 -19.3 83 -17  982.5  0.4  734  317           
12 22.01.17 тихо ()   20000 м    ясно 
-22 -24.3 81 -22  983.3  0.8  735  324           
15 22.01.17 тихо ()   20000 м    ясно 
-20.9 -23.2 82 -21  984.8  1.5  736  323    -13.8       
18 22.01.17 тихо ()   20000 м    ясно 
-20.6 -22.9 82 -21  985.8  0.9  737  323           
21 22.01.17 тихо ()   20000 м    10/0 средняя 
[Ac As]
-21.5 -23.8 82 -22  986.2  0.4  737  324           
00 23.01.17 тихо ()   20000 м    10/0 средняя 
[Ac As]
-20.8 -23.1 82 -21  986.2  0.4  737  323           
03 23.01.17 120 (ЮВ) 4000 м  слаб. снег  10/0 средняя 
[As op]
-19.3 -21.5 83 -20  985.8  0.4  737  321  -21.6    0.3  35  равномерный
сухой снег
100% 
06 23.01.17 270 (З) 4000 м  слаб. снег  10/0 средняя 
[As op]
-18.2 -20.2 84 -18  985.9  0.1  737  320           
09 23.01.17 300 (СЗ) 20000 м  {снег}  3/0 верхняя 
[Ci fib]
-19.1 -21.5 81 -22  986.7  0.8  737  321           
12 23.01.17 260 (З) 20000 м  {снег}  9/0 средняя 
[As trans]
-22.2 -24.6 81 -23  988.3  1.6  739  326           
15 23.01.17 270 (З) 20000 м    10/0 средняя 
[Ac As]
-24.2 -26.8 79 -25  990.2  1.6  740  329    -16.2  0.8     
18 23.01.17 250 (З) 4000 м  слаб. снег  10/0 средняя 
[As trans]
-24.5 -27.3 77 -25  992.2  741  330           
21 23.01.17 310 (СЗ) 20000 м  {снег}  4/0 средняя 
[Ac trans]
-23.8 -26.5 78 -24  994.5  2.2  743  330           
00 24.01.17 310 (СЗ) 20000 м  {снег}  ясно 
-29.1 -32.2 74 -30  996.8  2.2  745  338           
03 24.01.17 300 (СЗ) 20000 м    ясно 
-30.3 -33.5 74 -31  998.9  2.1  746  340  -30.9    0.2  37  равномерный
сухой снег
100% 
06 24.01.17 300 (СЗ) 20000 м    ясно 
-28.9 -32.1 74 -30  1001  2.1  748  339  -31.8         
Время (UTC), дата Ветер
(°,м/с) 
Видим.   Явления Облачность Т
(°С)
Тd
(°С)
f(%) Тe
(°С)
Pmin
(гПа)
dP
(гПа)
Po
(мм)
O2
(г/м3)
Тmin Tmax R s Состояние
почвы

Для получения пояснительной информации подведите курсор к названию столбца.

ПОГОДА в Сосьве - архив

Всё, что Вы хотите узнать о погоде в Сосьве - удобно и подробно!

Выберите нужную дату (начиная с 1 января 2015* года) и нажмите кнопку "Найти".
Будут отображены архивные сводки погоды по пункту Сосьва, начиная с указанной даты.


Отображать данные в формате CSV (для использования в таблицах Excel)


Внимание! Наш архив погоды предназначен исключительно для личного некоммерческого использования в познавательных целях. Если Вам необходимы официальные справки о состоянии погоды (для производственных, юридических, коммерческих и т.п. целей), обращайтесь в органы Росгидромета.

*Примечание: данная дата относится к архиву по метеостанциям СССР (Россия, СНГ, Балтия).
Архив по метеостанциям Зарубежной Европы и Азии (кроме Китая) хранится 10 дней, по другим регионам земного шара (Китай, Африка, Америка, Австралия, Океания) - 1 день.

Сосьва - район местоположения метеостанции


Название, широта, долгота, высота метеостанции:
Сосьва 63.6°ш. 62.1°д. 28 м над ур. моря [Российская Федерация]

Дополнительная информация

В oтличие oт бoльшинства пoгoдных сайтoв мы публикуем пoдрoбную метеoинфoрмацию в детальнoм прoфессиoнальнoм фoрмате.

Характеристики температуры и влажнoсти вoздуха измеряются на высoте 2 м в тени вдали oт зданий и деревьев.
Скoрoсть ветра измеряется на высoте 10 м (на урoвне рoста челoвека скoрoсть ветра ниже в 1.5-2 раза). Если метеoстанция нахoдится в гoрoде или в лесу, тo скoрoсть ветра занижена на 2-4 м/с пo сравнению с oткрытым местoм. Скoрoсть ветра над акватoриями крупных рек и oзёр, а также на вершинах хoлмoв на 2-5 м/с выше, чем в oбычных услoвиях.
Атмoсфернoе давление в разных тoчках местнoсти мoжет значительнo oтличаться oт давления на метеoстанции, в зависимoсти oт услoвий рельефа (при пoдъёме на 10 м давление пoнижается примернo на 1 мм рт.ст.).